Location: Baix
(44.7118°N, 4.7648°E)
Time: 11:14:16
(UTC+00:00)

Tiros 1 despin weight - Pass Details

Date: 27 November 2020
Orbit: 594 x 641 km, 48.2° (Epoch: 17 January)

Event Time Altitude Azimuth Distance (km) Brightness Sun altitude
Rises 17:23:26 0° 291° (WNW) 2,942 ? -13.9°
Reaches altitude 10° 17:25:47 10° 289° (WNW) 2,028 ? -14.3°
Maximum altitude 17:30:26 69° 207° (SSW) 679 ? -15.1°
Enters shadow 17:34:22 14° 125° (SE) 1,750 ? -15.8°
